Regional Weather Roundup
Issued by NWS Charleston, SC

Current Version | Previous Version | Text Only | Print | Product List | Glossary On
Versions: 1 2 3 4 5 6 7 8 9 10 11 12 13 14 15 16 17 18 19 20 21 22 23 24 25 26 27 28 29 30 31 32 33 34 35 36 37 38 39 40 41 42 43 44 45 46 47 48 49 50
000 ASUS42 KCHS 311727 RWRCHS REGIONAL WEATHER ROUNDUP NATIONAL WEATHER SERVICE CHARLESTON SC 100 PM EDT MON AUG 31 2015 NOTE: "FAIR" INDICATES FEW OR NO CLOUDS BELOW 12,000 FEET WITH NO SIGNIFICANT WEATHER AND/OR OBSTRUCTIONS TO VISIBILITY. NOT ALL STATIONS ARE QUALITY CONTROLLED BY THE NATIONAL WEATHER SERVICE. USE DATA WITH CAUTION...ESPECIALLY DEWPOINT OBSERVATIONS. SCZ027-030-031-034>040-042>050-311800- ...SOUTHEAST SOUTH CAROLINA... CITY SKY/WX TMP DP RH WIND PRES REMARKS N CHARLESTON PTSUNNY 83 73 72 N7 30.07S WATERFRONT PRK N/A 80 75 84 N6 30.04S MOUNT PLEASANT FAIR 82 75 78 N3 30.07R JOHNS ISLAND PTSUNNY N/A N/A N/A MISG N/A PINOPOLIS N/A 81 73 78 NE7 30.01R MONCKS CORNER CLOUDY 79 73 83 N3 30.07F SUMMERVILLE CLOUDY 82 73 74 N5 30.08S BEAUFORT MCAS LGT RAIN 82 74 76 NW7 30.08S BEAUFORT ARPT CLOUDY 82 75 78 NW8 30.07F HILTON HEAD IS PTSUNNY 81 72 74 NW10 30.09S WALTERBORO PTSUNNY 82 73 74 NW7 30.09S ALLENDALE CLOUDY 79 72 78 CALM 30.09S ...SOUTHERN MIDLANDS AND PEE DEE... CITY SKY/WX TMP DP RH WIND PRES REMARKS GEORGETOWN NOT AVBL KINGSTREE NOT AVBL ORANGEBURG CLOUDY 80 70 71 CALM 30.09F BARNWELL PTSUNNY 81 72 74 N5 30.10F AIKEN CLOUDY 73 68 83 W5 30.14F MANNING CLOUDY 77 70 78 NW7 30.08S COLUMBIA PTSUNNY 82 69 64 VRB6 30.09F SUMTER MOSUNNY 78 69 74 N6 30.07F FLORENCE PTSUNNY 81 71 71 E6 30.07F MYRTLE BEACH PTSUNNY 77 72 83 CALM 30.08F N MYRTLE BEACH CLOUDY 78 74 87 N5 30.07F $$ GAZ063-065-086>088-099>101-113>116-118-119-134>141-150-311800- ...SOUTHEAST GEORGIA... CITY SKY/WX TMP DP RH WIND PRES REMARKS SAVANNAH ARPT PTSUNNY 82 73 74 VRB5 30.09S HUNTER AAF PTSUNNY 82 77 83 NW7 30.06S HX 91 FORT STEWART CLOUDY 82 73 74 N1 30.07F STATESBORO CLOUDY 78 78 100 NW6 30.10S SYLVANIA CLOUDY 79 75 87 NE5 30.10F CLAXTON NOT AVBL ...CSRA...CENTRAL AND FAR SOUTHEAST GEORGIA... CITY SKY/WX TMP DP RH WIND PRES REMARKS THOMSON CLOUDY 76 72 87 CALM 30.17F AUGUSTA-BUSH CLOUDY 76 70 82 N8 30.11F AUGUSTA-DANIEL CLOUDY 81 69 67 N6 30.13F SWAINSBORO CLOUDY 81 73 78 E3 30.12S VIDALIA CLOUDY 79 72 78 N7 30.11S EASTMAN PTSUNNY 84 71 65 N5 30.13S HAZLEHURST PTSUNNY 85 70 60 NW5 30.09F HX 90 ALMA CLOUDY 83 71 67 N5 30.09F WAYCROSS MOSUNNY 88 77 69 E7 30.08F HX 99 JESUP CLOUDY 86 77 74 NW6 30.09F HX 97 BAXLEY CLOUDY 86 72 62 NW6 30.09S HX 92 BRUNSWICK MOSUNNY 84 73 70 CALM 30.08F HX 91 SAINT SIMONS MOSUNNY 85 75 72 W6 30.08S HX 93 $$ SCZ027-028-034-036>038-045-046-048>050-GAZ119-141-311800- ...LAKE AND SUPPLEMENTAL COASTAL OBSERVATIONS... STATION/POSITION TIME TEMP WIND PRES WAVE SWELL AIR SEA DIR/SP/G HT/PER HT/PER/DIR (UTC) (F) (DEG/KT/KT) (MB) (FT/S) (FT/S/D) UPR LAKE MARION NOT AVBL WINYAH BAY 1645 76 70/ 4 1017.0F LAKE MURRAY 1600 74 320/ 3/ 6 1019.3F ACE BASIN NERRS 1645 84 20/ 3 1019.0 FORT PULASKI 1700 78 82 280/ 12/ 14 1019.1S SAPELO ISLAND 1700 86 340/ 5 1018.0F $$ ANZ835-935-AMZ111-154-330-350-352-354-370-450-454-472-311800- ...C-MAN AND BUOY OBSERVATIONS... STATION/POSITION TIME TEMP WIND PRES WAVE SWELL AIR SEA DIR/SP/G HT/PER HT/PER/DIR (UTC) (F) (DEG/KT/KT) (MB) (FT/S) (FT/S/D) BUOY 41004 1650 78 83 150/ 14/ 17 1017.7R 5/ 9 3/ 9 BUOY 41008 1650 80 85 350/ 8/ 10 1018.6S 4/10 3/100/10 FOLLY BEACH CMAN 1700 81 350/ 6/ 8 1018.3F CAPERS NEARSHORE 1608 77 10/ 8/ 12 1018.0R FRIPP NEARSHORE 1600 83 350/ 10/ 12 1018.0R STATION/POSITION TIME TEMP WIND PRES WAVE SWELL AIR SEA DIR/SP/G HT/PER HT/PER/DIR (UTC) (F) (DEG/KT/KT) (MB) (FT/S) (FT/S/D) 5E ST. MARYS GA 1621 86 N/A 4/10 2/110/11 FRYING PAN BUOY 1650 83 81 190/ 6/ 6 1019.1R 4/ 9 3/130/ 9 BUOY 41025 1650 82 85 160/ 6/ 8 1020.8R 3/ 9 3/130/ 9 CAPE LOOKOUT NC 1700 77 150/ 23/ 25 1019.5F BUOY 41002 1650 84 84 160/ 12/ 14 1020.0F 3/ 7 3/170/ 7 BUOY 41010 1620 84 86 160/ 12/ 14 1019.2R ST AUGUSTINE FL 1700 81 84 70/ 6/ 7 1019.0F $$

USA.gov is the U.S. government's official web portal to all federal, state and local government web resources and services.